This is the latest recevied weather packets stored in our database for station/object F4FEB-14. If no packets are shown the sender has not sent any weather packets the latest 10 day(s).
| Time | Temp. | Humidity | Pressure | Rain* | Wind** | Luminosity | Snow |
|---|---|---|---|---|---|---|---|
| 1777558486 | 24.44° C | 42% | 1019.9 hPa | 0 mm | - | - | - |
| 1777558185 | 23.89° C | 44% | 1019.8 hPa | 0 mm | - | - | - |
| 1777557883 | 23.33° C | 45% | 1019.9 hPa | 0 mm | - | - | - |
| 1777557582 | 23.33° C | 47% | 1019.9 hPa | 0 mm | - | - | - |
| 1777557281 | 23.33° C | 44% | 1020 hPa | 0 mm | - | - | - |
| 1777556980 | 24.44° C | 45% | 1019.8 hPa | 0 mm | - | - | - |
| 1777556679 | 23.33° C | 46% | 1019.9 hPa | 0 mm | - | - | - |
| 1777556378 | 22.78° C | 47% | 1020 hPa | 0 mm | - | - | - |
| 1777556077 | 22.78° C | 47% | 1020.1 hPa | 0 mm | - | - | - |
| 1777555775 | 23.33° C | 47% | 1020 hPa | 0 mm | - | - | - |
| 1777555473 | 23.33° C | 46% | 1020.1 hPa | 0 mm | - | - | - |
| 1777555171 | 23.33° C | 47% | 1020.1 hPa | 0 mm | - | - | - |
| 1777554871 | 23.33° C | 47% | 1020.1 hPa | 0 mm | - | - | - |
| 1777554569 | 23.33° C | 45% | 1020.2 hPa | 0 mm | - | - | - |
| 1777554269 | 23.33° C | 48% | 1020.1 hPa | 0 mm | - | - | - |
| 1777553967 | 23.33° C | 49% | 1020.2 hPa | 0 mm | - | - | - |
| 1777553667 | 22.78° C | 49% | 1020.1 hPa | 0 mm | - | - | - |
| 1777553365 | 23.33° C | 49% | 1020.2 hPa | 0 mm | - | - | - |
| 1777553064 | 23.89° C | 46% | 1020.2 hPa | 0 mm | - | - | - |
| 1777552764 | 23.89° C | 49% | 1020.1 hPa | 0 mm | - | - | - |
| 1777552463 | 23.89° C | 49% | 1020.2 hPa | 0 mm | - | - | - |
| 1777552162 | 22.78° C | 50% | 1020.2 hPa | 0 mm | - | - | - |
| 1777551861 | 22.78° C | 49% | 1020.2 hPa | 0 mm | - | - | - |
| 1777551560 | 23.33° C | 49% | 1020.2 hPa | 0 mm | - | - | - |
| 1777551258 | 22.78° C | 52% | 1020.3 hPa | 0 mm | - | - | - |
* Rain latest hour (hover to see other rain measurements)
** Current wind speed in m/s (hover to see current wind gust speed)